Weather History for Avalon, CA

Change the Weather History Date:

Sunday, February 17, 2013

  Actual Average Record
Temperature  
Mean Temperature 54 °F -  
Max Temperature 61 °F 54 °F 77 °F (2007)
Min Temperature 46 °F 47 °F 42 °F (2006)
Degree Days  
Heating Degree Days 12    
Growing Degree Days 4 (Base 50)    
Moisture  
Dew Point 36 °F    
Average Humidity 58    
Maximum Humidity 100    
Minimum Humidity 21    
Precipitation  
Precipitation 0.00 in - - ()
Sea Level Pressure  
Sea Level Pressure 29.96 in    
Wind  
Wind Speed 6 mph (West)    
Max Wind Speed 10 mph    
Max Gust Speed -    
Visibility 8 miles    
Events Fog    
Averages and records for this station are not official NWS values.
T = Trace of Precipitation, MM = Missing Value Source: NWS Daily Summary

Daily Weather History Graph

Daily Weather History Graph

Search for Another Location

Airport:

Trip Planner

Search our weather history database for the weather conditions in past years. The results will help you decide how hot, cold, wet, or windy it might be!

Date:

Astronomy

Feb. 17, 2013 Rise Set
Actual Time 6:35 AM PST 5:40 PM PST
Civil Twilight 6:09 AM PST 6:05 PM PST
Nautical Twilight 5:40 AM PST 6:34 PM PST
Astronomical Twilight 5:12 AM PST 7:03 PM PST
Moon 10:55 AM PST (2/17) 12:17 AM PST (2/17)
Length of Visible Light 11h 55m
Length of Day
11h 05m
Waxing Crescent, 50% of the Moon is Illuminated
Feb 17
Waxing Crescent
Feb 17
First Quarter
Feb 25
Full
Mar 4
Last Quarter
Mar 11
New

Hourly Weather History & Observations

Time (PST) Temp. Windchill Dew Point Humidity Pressure Visibility Wind Dir Wind Speed Gust Speed Precip Events Conditions
12:51 AM 57.9 °F - 18.0 °F 21% 29.96 in 10.0 mi WSW 9.2 mph - N/A   Clear
1:51 AM 57.9 °F - 19.9 °F 23% 29.95 in 10.0 mi WSW 9.2 mph - N/A   Clear
2:51 AM 57.9 °F - 19.0 °F 22% 29.94 in 10.0 mi West 9.2 mph - N/A   Clear
3:51 AM 57.0 °F - 19.9 °F 24% 29.92 in 10.0 mi West 10.4 mph - N/A   Clear
4:51 AM 55.9 °F - 21.0 °F 26% 29.93 in 10.0 mi West 8.1 mph - N/A   Clear
5:51 AM 55.0 °F - 19.9 °F 25% 29.93 in 10.0 mi West 8.1 mph - N/A   Clear
6:51 AM 57.0 °F - 21.0 °F 25% 29.93 in 10.0 mi WNW 3.5 mph - N/A   Clear
7:51 AM 57.9 °F - 28.0 °F 32% 29.94 in 10.0 mi Calm Calm - N/A   Clear
8:51 AM 57.9 °F - 34.0 °F 41% 29.96 in 10.0 mi Calm Calm - N/A   Clear
9:51 AM 57.0 °F - 46.0 °F 67% 29.96 in 10.0 mi West 4.6 mph - N/A   Clear
10:51 AM 57.0 °F - 46.9 °F 69% 29.97 in 10.0 mi WNW 3.5 mph - N/A   Clear
11:51 AM 61.0 °F - 45.0 °F 56% 29.95 in 10.0 mi West 6.9 mph - N/A   Clear
12:51 PM 61.0 °F - 41.0 °F 48% 29.93 in 10.0 mi WSW 5.8 mph - N/A   Clear
1:51 PM 59.0 °F - 42.1 °F 53% 29.92 in 10.0 mi WSW 9.2 mph - N/A   Clear
2:51 PM 57.0 °F - 45.0 °F 64% 29.93 in 10.0 mi WSW 10.4 mph - N/A   Clear
3:51 PM 55.0 °F - 43.0 °F 64% 29.94 in 10.0 mi WSW 10.4 mph - N/A   Clear
4:51 PM 54.0 °F - 44.1 °F 69% 29.94 in 10.0 mi WSW 8.1 mph - N/A   Clear
5:51 PM 51.1 °F - 42.1 °F 71% 29.96 in 10.0 mi Calm Calm - N/A   Clear
6:51 PM 51.1 °F - 39.0 °F 63% 29.96 in 10.0 mi WNW 3.5 mph - N/A   Clear
7:51 PM 50.0 °F - 39.9 °F 68% 29.97 in 10.0 mi Calm Calm - N/A   Clear
8:07 PM 46.4 °F 44.3 °F 44.6 °F 93% 29.99 in 1.8 mi SW 4.6 mph - N/A   Partly Cloudy
8:10 PM 46.4 °F 43.5 °F 44.6 °F 93% 29.99 in 0.8 mi SW 5.8 mph - N/A   Mist
9:51 PM 46.9 °F - 46.0 °F 97% 30.01 in 0.5 mi Calm Calm - N/A Fog Fog
10:51 PM 46.0 °F - 45.0 °F 96% 30.01 in 0.2 mi Calm Calm - N/A Fog Fog
11:47 PM 46.4 °F - 46.4 °F 100% 30.02 in 1.2 mi Calm Calm - N/A   Overcast
11:51 PM 46.9 °F - 46.0 °F 97% 30.01 in 1.5 mi Calm Calm - N/A   Overcast